Simultaneous Nadir Overpasses (SNOs) Predictions

Prediction of SNOs between METOP-B and TERRA Satellite Orbit:

Table of predicted SNOs for the next 14.0 days since TLE Epoch: 7/4/2015
Index Date (METOP-B) Time (METOP-B) Lat,Lon (METOP-B) SZA (METOP-B ) Date (TERRA) Time (TERRA) Lat,Lon (TERRA) SZA (TERRA ) Distance(km) Time Diff (sec)
1 07/04/2015 23:41:01 -81.31, 51.97 118.73 07/04/2015 23:41:42 -81.30, 51.89 118.73 1.57 41
2 07/05/2015 00:31:41 81.31,-140.30 61.33 07/05/2015 00:31:08 81.31,-140.31 61.31 0.55 33
3 07/07/2015 19:15:22 -81.31, 118.55 118.44 07/07/2015 19:15:57 -81.32, 118.64 118.41 1.68 35
4 07/07/2015 20:06:02 81.31, -73.75 61.61 07/07/2015 20:05:23 81.32, -73.59 61.61 2.84 39
5 07/10/2015 14:49:44 -81.31,-174.89 118.11 07/10/2015 14:50:14 -81.31,-175.07 118.12 2.98 30
6 07/10/2015 15:40:24 81.31, -7.23 61.94 07/10/2015 15:39:40 81.31, -7.34 61.91 1.75 44
7 07/13/2015 10:24:06 -81.31,-108.36 117.72 07/13/2015 10:24:30 -81.32,-108.48 117.72 1.98 24
8 07/13/2015 11:14:46 81.32, 59.25 62.32 07/13/2015 11:13:56 81.32, 59.22 62.29 0.70 50
9 07/16/2015 05:58:28 -81.31, -42.25 117.34 07/16/2015 05:58:46 -81.30, -42.35 117.35 1.78 18




NCC Satellite Simultaneous Nadir Overpasses (SNOs) Prediction Service
